Back to catalog

STARLINK-32012

AliveCommunicationsVLEO
NORAD 60027·PAYLOAD·🇺🇸 United States

Launched Jun 8, 2024 from Cape Canaveral Space Force Station

Loading…

Next Passes (next 24 hours)

TLE

FreshSource: CelesTrak SupGP

Epoch: Sep 14, 2026, 14:18 UTC

1 60027C 24111M   26257.59631944  .00011123  00000+0  32878-3 0  2572
2 60027  53.1567 276.9567 0001201  71.7051 268.2506 15.34370364    17

Track STARLINK-32012 in real time with AllMySat

Download on the App Store